QPF
0.00 0.00 0.01 0.01 0.01 0.01 0.01 0.01 0.02 0.02 0.04 0.03 0.02 0.02 0.02 0.03 0.04 0.03 0.03 0.04 0.04 0.04 0.03 0.03 0.03 0.04 0.05 0.07 0.08 0.10 0.11 0.09 0.08 0.07 0.06 0.05 0.06 0.07
0.00 0.00 0.00 0.01 0.01 0.01 0.02 0.02 0.02 0.02 0.03 0.03 0.02 0.02 0.03 0.04 0.04 0.03 0.03 0.03 0.03 0.04 0.04 0.03 0.03 0.04 0.04 0.04 0.04 0.05 0.06 0.06 0.04 0.05 0.05 0.04 0.04 0.05
0.00 0.00 0.00 0.01 0.01 0.01 0.01 0.01 0.01 0.01 0.02 0.02 0.02 0.02 0.03 0.04 0.03 0.04 0.04 0.03 0.03 0.03 0.04 0.04 0.03 0.04 0.05 0.05 0.03 0.03 0.03 0.04 0.05 0.05 0.04 0.04 0.03 0.03
0.00 0.00 0.00 0.00 0.00 0.00 0.00 0.00 0.01 0.00 0.01 0.01 0.01 0.02 0.02 0.02 0.03 0.04 0.05 0.04 0.04 0.04 0.05 0.05 0.03 0.02 0.04 0.05 0.04 0.03 0.04 0.03 0.04 0.04 0.03 0.03 0.03 0.03
0.00 0.00 0.00 0.00 0.00 0.00 0.00 0.00 0.01 0.00 0.00 0.01 0.01 0.01 0.01 0.02 0.03 0.03 0.05 0.06 0.05 0.04 0.05 0.06 0.04 0.03 0.02 0.03 0.05 0.04 0.03 0.03 0.03 0.03 0.03 0.03 0.03 0.03
0.00 0.00 0.00 0.00 0.00 0.00 0.00 0.00 0.01 0.01 0.00 0.01 0.01 0.01 0.01 0.01 0.03 0.03 0.04 0.05 0.05 0.05 0.05 0.06 0.05 0.04 0.03 0.02 0.04 0.03 0.03 0.03 0.03 0.03 0.03 0.03 0.03 0.02
0.00 0.00 0.00 0.01 0.01 0.01 0.01 0.01 0.02 0.01 0.00 0.01 0.02 0.02 0.01 0.01 0.02 0.03 0.04 0.05 0.05 0.05 0.05 0.05 0.04 0.03 0.02 0.02 0.02 0.03 0.03 0.04 0.04 0.04 0.03 0.03 0.03 0.03
0.00 0.00 0.00 0.00 0.01 0.01 0.01 0.01 0.01 0.01 0.01 0.01 0.02 0.03 0.02 0.01 0.02 0.03 0.04 0.05 0.04 0.03 0.04 0.05 0.04 0.03 0.02 0.02 0.02 0.03 0.03 0.03 0.02 0.03 0.03 0.03 0.03 0.03
0.00 0.00 0.00 0.00 0.00 0.00 0.01 0.01 0.01 0.02 0.02 0.01 0.02 0.03 0.02 0.02 0.02 0.02 0.03 0.03 0.03 0.03 0.03 0.04 0.04 0.03 0.03 0.03 0.04 0.03 0.03 0.03 0.02 0.02 0.02 0.02 0.02 0.03
0.01 0.01 0.01 0.00 0.00 0.00 0.00 0.00 0.00 0.01 0.01 0.01 0.02 0.02 0.02 0.02 0.03 0.03 0.03 0.03 0.03 0.03 0.03 0.04 0.03 0.02 0.03 0.03 0.04 0.03 0.03 0.02 0.02 0.02 0.03 0.02 0.02 0.02
0.01 0.01 0.01 0.01 0.01 0.01 0.01 0.00 0.00 0.00 0.01 0.01 0.01 0.02 0.03 0.02 0.03 0.04 0.05 0.05 0.04 0.04 0.04 0.04 0.04 0.03 0.03 0.03 0.03 0.04 0.04 0.03 0.02 0.02 0.03 0.02 0.02 0.02
0.01 0.01 0.02 0.01 0.01 0.01 0.01 0.01 0.00 0.00 0.00 0.00 0.01 0.01 0.02 0.02 0.02 0.02 0.04 0.05 0.06 0.06 0.06 0.06 0.06 0.05 0.04 0.03 0.03 0.03 0.03 0.03 0.03 0.03 0.03 0.03 0.03 0.03
0.02 0.02 0.02 0.02 0.02 0.02 0.01 0.01 0.01 0.00 0.00 0.00 0.01 0.01 0.02 0.02 0.02 0.02 0.02 0.03 0.04 0.05 0.05 0.06 0.07 0.07 0.07 0.05 0.03 0.02 0.02 0.02 0.02 0.02 0.02 0.03 0.03 0.02
0.02 0.02 0.02 0.02 0.02 0.02 0.01 0.01 0.01 0.01 0.00 0.00 0.01 0.01 0.02 0.02 0.02 0.01 0.02 0.02 0.02 0.03 0.03 0.04 0.05 0.05 0.06 0.05 0.04 0.03 0.02 0.02 0.02 0.02 0.02 0.02 0.02 0.01
0.03 0.03 0.03 0.03 0.02 0.02 0.02 0.02 0.02 0.02 0.01 0.01 0.01 0.01 0.01 0.02 0.02 0.02 0.02 0.01 0.01 0.02 0.02 0.03 0.04 0.04 0.04 0.04 0.04 0.03 0.02 0.01 0.01 0.01 0.01 0.02 0.02 0.01
0.03 0.03 0.03 0.02 0.03 0.03 0.03 0.03 0.03 0.02 0.02 0.01 0.01 0.01 0.01 0.02 0.02 0.02 0.02 0.02 0.01 0.01 0.01 0.01 0.02 0.03 0.03 0.03 0.03 0.03 0.02 0.01 0.01 0.01 0.01 0.01 0.01 0.01
0.03 0.04 0.03 0.02 0.02 0.03 0.04 0.04 0.04 0.04 0.03 0.03 0.02 0.02 0.02 0.02 0.02 0.02 0.02 0.02 0.01 0.01 0.01 0.01 0.01 0.02 0.02 0.02 0.02 0.02 0.01 0.01 0.01 0.01 0.01 0.01 0.01 0.01
0.03 0.03 0.03 0.03 0.03 0.03 0.05 0.05 0.05 0.04 0.04 0.04 0.03 0.03 0.03 0.03 0.03 0.03 0.03 0.03 0.02 0.01 0.01 0.01 0.01 0.02 0.02 0.02 0.01 0.01 0.01 0.01 0.01 0.01 0.01 0.01 0.01 0.01
0.03 0.03 0.02 0.03 0.03 0.04 0.05 0.06 0.06 0.05 0.05 0.05 0.05 0.05 0.05 0.05 0.05 0.05 0.04 0.04 0.03 0.02 0.02 0.02 0.02 0.02 0.02 0.02 0.01 0.01 0.01 0.02 0.02 0.02 0.01 0.01 0.01 0.01
0.02 0.02 0.03 0.03 0.03 0.03 0.05 0.06 0.08 0.07 0.08 0.08 0.07 0.08 0.08 0.08 0.07 0.05 0.05 0.05 0.04 0.03 0.02 0.02 0.02 0.02 0.02 0.02 0.02 0.01 0.02 0.02 0.02 0.02 0.02 0.01 0.02 0.01
0.01 0.02 0.02 0.03 0.03 0.03 0.04 0.05 0.08 0.09 0.10 0.10 0.10 0.10 0.11 0.11 0.10 0.08 0.06 0.05 0.05 0.05 0.04 0.02 0.02 0.02 0.03 0.03 0.03 0.03 0.02 0.02 0.02 0.01 0.01 0.01 0.01 0.01
0.01 0.02 0.02 0.02 0.02 0.03 0.03 0.05 0.06 0.08 0.10 0.11 0.11 0.12 0.14 0.15 0.13 0.11 0.09 0.08 0.06 0.06 0.05 0.04 0.03 0.03 0.04 0.04 0.04 0.03 0.03 0.02 0.01 0.01 0.01 0.01 0.00 0.00
0.01 0.01 0.01 0.02 0.02 0.02 0.03 0.04 0.05 0.07 0.09 0.10 0.12 0.13 0.15 0.17 0.17 0.16 0.14 0.11 0.10 0.09 0.09 0.08 0.06 0.05 0.05 0.05 0.04 0.03 0.03 0.02 0.02 0.01 0.01 0.00 0.00 0.00
MSLP
1014.74 1014.69 1014.71 1014.78 1014.86 1014.92 1014.92 1014.86 1014.72 1014.51 1014.25 1013.98 1013.73 1013.51 1013.36 1013.27 1013.24 1013.25 1013.30 1013.37 1013.44 1013.52 1013.60 1013.68 1013.78 1013.90 1014.05 1014.25 1014.48 1014.77 1015.10 1015.48 1015.89 1016.33 1016.78 1017.22 1017.64 1018.02
1015.04 1015.00 1015.01 1015.06 1015.11 1015.15 1015.13 1015.06 1014.91 1014.70 1014.44 1014.17 1013.89 1013.65 1013.45 1013.31 1013.21 1013.16 1013.15 1013.17 1013.21 1013.26 1013.34 1013.42 1013.53 1013.67 1013.83 1014.04 1014.28 1014.56 1014.89 1015.27 1015.68 1016.12 1016.57 1017.02 1017.46 1017.85
1015.35 1015.32 1015.33 1015.36 1015.39 1015.39 1015.35 1015.26 1015.11 1014.90 1014.66 1014.39 1014.12 1013.86 1013.63 1013.44 1013.29 1013.18 1013.11 1013.07 1013.07 1013.10 1013.16 1013.25 1013.37 1013.52 1013.71 1013.93 1014.19 1014.48 1014.81 1015.18 1015.59 1016.02 1016.46 1016.90 1017.33 1017.72
1015.61 1015.61 1015.63 1015.64 1015.65 1015.63 1015.57 1015.47 1015.32 1015.13 1014.90 1014.66 1014.40 1014.15 1013.91 1013.69 1013.50 1013.34 1013.21 1013.12 1013.07 1013.07 1013.11 1013.20 1013.33 1013.51 1013.72 1013.97 1014.24 1014.55 1014.88 1015.24 1015.63 1016.04 1016.46 1016.88 1017.28 1017.65
1015.79 1015.82 1015.85 1015.87 1015.86 1015.83 1015.76 1015.66 1015.52 1015.36 1015.16 1014.95 1014.73 1014.50 1014.27 1014.04 1013.82 1013.62 1013.45 1013.31 1013.22 1013.19 1013.22 1013.31 1013.45 1013.65 1013.89 1014.16 1014.45 1014.77 1015.10 1015.45 1015.82 1016.19 1016.57 1016.95 1017.31 1017.65
1015.85 1015.91 1015.96 1015.98 1015.98 1015.94 1015.88 1015.79 1015.68 1015.54 1015.39 1015.23 1015.06 1014.87 1014.66 1014.44 1014.22 1014.00 1013.80 1013.64 1013.52 1013.47 1013.48 1013.57 1013.73 1013.94 1014.20 1014.49 1014.80 1015.12 1015.45 1015.78 1016.11 1016.45 1016.77 1017.10 1017.41 1017.69
1015.78 1015.86 1015.93 1015.96 1015.96 1015.94 1015.89 1015.82 1015.74 1015.65 1015.55 1015.44 1015.33 1015.19 1015.03 1014.84 1014.64 1014.43 1014.23 1014.05 1013.92 1013.86 1013.87 1013.96 1014.12 1014.35 1014.63 1014.93 1015.25 1015.57 1015.89 1016.19 1016.48 1016.77 1017.03 1017.30 1017.55 1017.78
1015.61 1015.70 1015.77 1015.81 1015.82 1015.80 1015.77 1015.73 1015.68 1015.63 1015.59 1015.55 1015.49 1015.42 1015.31 1015.18 1015.01 1014.83 1014.65 1014.48 1014.36 1014.30 1014.32 1014.42 1014.59 1014.83 1015.11 1015.42 1015.74 1016.06 1016.35 1016.62 1016.87 1017.10 1017.31 1017.51 1017.71 1017.89
1015.40 1015.47 1015.53 1015.56 1015.58 1015.57 1015.54 1015.52 1015.50 1015.50 1015.51 1015.52 1015.53 1015.51 1015.47 1015.40 1015.29 1015.15 1015.00 1014.87 1014.77 1014.73 1014.76 1014.87 1015.05 1015.30 1015.59 1015.89 1016.21 1016.50 1016.77 1017.00 1017.21 1017.39 1017.56 1017.71 1017.86 1018.01
1015.22 1015.26 1015.29 1015.30 1015.30 1015.28 1015.26 1015.24 1015.24 1015.26 1015.30 1015.36 1015.41 1015.46 1015.48 1015.46 1015.41 1015.33 1015.23 1015.14 1015.09 1015.08 1015.13 1015.25 1015.44 1015.69 1015.97 1016.27 1016.57 1016.84 1017.08 1017.29 1017.46 1017.61 1017.74 1017.87 1018.00 1018.13
1015.17 1015.15 1015.14 1015.11 1015.07 1015.03 1014.99 1014.96 1014.95 1014.97 1015.03 1015.10 1015.18 1015.27 1015.33 1015.36 1015.37 1015.34 1015.30 1015.26 1015.25 1015.27 1015.35 1015.50 1015.69 1015.94 1016.22 1016.50 1016.78 1017.03 1017.25 1017.44 1017.59 1017.72 1017.84 1017.96 1018.09 1018.23
1015.26 1015.19 1015.12 1015.05 1014.97 1014.88 1014.80 1014.73 1014.69 1014.69 1014.72 1014.78 1014.87 1014.97 1015.05 1015.12 1015.17 1015.19 1015.20 1015.20 1015.23 1015.29 1015.40 1015.56 1015.76 1016.01 1016.28 1016.56 1016.82 1017.06 1017.27 1017.44 1017.59 1017.72 1017.85 1017.98 1018.13 1018.31
1015.51 1015.39 1015.27 1015.14 1015.00 1014.86 1014.72 1014.60 1014.50 1014.45 1014.44 1014.46 1014.52 1014.60 1014.68 1014.76 1014.83 1014.88 1014.92 1014.96 1015.02 1015.11 1015.24 1015.42 1015.64 1015.89 1016.15 1016.43 1016.69 1016.93 1017.13 1017.31 1017.47 1017.62 1017.77 1017.93 1018.12 1018.33
1015.86 1015.70 1015.54 1015.36 1015.17 1014.97 1014.76 1014.57 1014.41 1014.28 1014.20 1014.17 1014.18 1014.21 1014.27 1014.33 1014.39 1014.44 1014.50 1014.56 1014.64 1014.75 1014.90 1015.09 1015.32 1015.57 1015.85 1016.13 1016.40 1016.65 1016.88 1017.08 1017.26 1017.44 1017.63 1017.83 1018.05 1018.30
1016.21 1016.04 1015.86 1015.65 1015.41 1015.16 1014.89 1014.63 1014.40 1014.19 1014.04 1013.93 1013.86 1013.84 1013.84 1013.86 1013.89 1013.92 1013.97 1014.03 1014.11 1014.23 1014.38 1014.58 1014.82 1015.10 1015.39 1015.70 1016.00 1016.28 1016.54 1016.77 1017.00 1017.21 1017.43 1017.67 1017.93 1018.21
1016.47 1016.32 1016.13 1015.92 1015.66 1015.37 1015.05 1014.74 1014.44 1014.16 1013.93 1013.74 1013.60 1013.50 1013.43 1013.39 1013.37 1013.37 1013.38 1013.41 1013.47 1013.58 1013.73 1013.94 1014.19 1014.49 1014.81 1015.15 1015.49 1015.82 1016.13 1016.42 1016.69 1016.94 1017.20 1017.47 1017.74 1018.04
1016.55 1016.43 1016.28 1016.07 1015.81 1015.51 1015.17 1014.82 1014.47 1014.15 1013.85 1013.60 1013.39 1013.21 1013.08 1012.96 1012.88 1012.81 1012.76 1012.75 1012.78 1012.85 1012.99 1013.19 1013.45 1013.77 1014.13 1014.52 1014.92 1015.31 1015.68 1016.03 1016.35 1016.65 1016.94 1017.22 1017.51 1017.80
1016.41 1016.34 1016.22 1016.04 1015.81 1015.52 1015.19 1014.83 1014.46 1014.11 1013.77 1013.47 1013.21 1012.97 1012.77 1012.58 1012.42 1012.28 1012.16 1012.08 1012.05 1012.08 1012.19 1012.37 1012.64 1012.97 1013.37 1013.81 1014.27 1014.74 1015.18 1015.60 1015.98 1016.33 1016.65 1016.94 1017.22 1017.50
1016.04 1016.02 1015.95 1015.81 1015.61 1015.35 1015.05 1014.71 1014.35 1014.00 1013.66 1013.34 1013.04 1012.76 1012.50 1012.25 1012.01 1011.79 1011.59 1011.43 1011.33 1011.30 1011.35 1011.51 1011.76 1012.11 1012.54 1013.03 1013.56 1014.10 1014.62 1015.11 1015.56 1015.96 1016.31 1016.62 1016.89 1017.15
1015.50 1015.51 1015.47 1015.38 1015.22 1015.00 1014.74 1014.44 1014.12 1013.79 1013.47 1013.15 1012.85 1012.54 1012.24 1011.94 1011.63 1011.33 1011.05 1010.81 1010.62 1010.51 1010.51 1010.62 1010.85 1011.20 1011.65 1012.18 1012.77 1013.38 1013.98 1014.55 1015.06 1015.52 1015.91 1016.24 1016.52 1016.77
1014.82 1014.85 1014.83 1014.77 1014.64 1014.46 1014.24 1013.99 1013.72 1013.44 1013.16 1012.87 1012.58 1012.28 1011.96 1011.62 1011.27 1010.90 1010.54 1010.21 1009.93 1009.74 1009.67 1009.72 1009.91 1010.24 1010.70 1011.26 1011.89 1012.56 1013.24 1013.88 1014.48 1015.00 1015.44 1015.81 1016.11 1016.36
1014.05 1014.07 1014.06 1014.00 1013.90 1013.75 1013.57 1013.37 1013.15 1012.93 1012.70 1012.47 1012.21 1011.93 1011.61 1011.26 1010.87 1010.45 1010.02 1009.62 1009.26 1008.99 1008.83 1008.82 1008.96 1009.25 1009.70 1010.27 1010.94 1011.66 1012.40 1013.11 1013.78 1014.38 1014.89 1015.31 1015.66 1015.95
1013.21 1013.21 1013.18 1013.11 1013.01 1012.88 1012.73 1012.57 1012.41 1012.25 1012.08 1011.90 1011.70 1011.45 1011.16 1010.81 1010.41 1009.96 1009.49 1009.02 1008.60 1008.25 1008.02 1007.93 1008.01 1008.27 1008.68 1009.24 1009.92 1010.67 1011.46 1012.24 1012.98 1013.66 1014.25 1014.75 1015.17 1015.51
Thickness
5680 5680 5679 5679 5680 5680 5679 5678 5674 5672 5675 5682 5687 5693 5696 5698 5701 5703 5706 5708 5711 5713 5715 5717 5719 5721 5723 5724 5725 5726 5727 5727 5728 5729 5729 5729 5729 5728
5681 5680 5679 5679 5679 5679 5679 5678 5677 5675 5673 5679 5684 5689 5692 5695 5697 5699 5702 5704 5706 5708 5711 5713 5715 5717 5718 5720 5721 5722 5723 5723 5724 5725 5725 5725 5726 5725
5681 5680 5679 5679 5678 5678 5678 5677 5676 5675 5673 5677 5682 5685 5688 5690 5692 5695 5697 5699 5701 5704 5706 5708 5710 5712 5714 5716 5717 5718 5718 5719 5720 5721 5721 5721 5722 5722
5681 5679 5678 5678 5677 5676 5676 5675 5675 5675 5674 5674 5677 5680 5683 5685 5687 5690 5692 5695 5697 5699 5701 5703 5705 5707 5709 5711 5712 5713 5714 5714 5715 5716 5717 5717 5717 5717
5681 5679 5678 5677 5675 5675 5674 5674 5674 5675 5674 5673 5673 5676 5678 5681 5682 5685 5687 5689 5692 5694 5696 5698 5700 5702 5704 5705 5707 5708 5708 5709 5710 5711 5711 5712 5712 5712
5681 5679 5677 5676 5675 5674 5673 5672 5672 5671 5671 5670 5671 5672 5673 5676 5677 5678 5679 5682 5685 5688 5690 5692 5694 5695 5697 5699 5701 5701 5703 5703 5704 5704 5705 5705 5706 5706
5678 5678 5677 5676 5675 5674 5673 5671 5670 5668 5667 5666 5666 5668 5669 5670 5671 5673 5673 5675 5678 5681 5682 5684 5686 5688 5690 5692 5693 5695 5696 5697 5697 5698 5698 5699 5699 5699
5674 5674 5674 5674 5673 5673 5672 5671 5669 5666 5664 5663 5663 5663 5666 5667 5669 5668 5667 5668 5669 5674 5675 5676 5679 5681 5683 5685 5687 5688 5689 5690 5690 5691 5691 5691 5692 5692
5668 5668 5668 5669 5668 5667 5667 5667 5666 5667 5666 5663 5661 5662 5663 5665 5664 5663 5663 5664 5665 5669 5669 5669 5671 5673 5676 5678 5680 5681 5681 5682 5682 5683 5683 5684 5684 5684
5661 5660 5660 5660 5661 5660 5660 5660 5660 5660 5661 5661 5660 5661 5663 5663 5663 5662 5661 5660 5661 5662 5663 5662 5663 5665 5669 5670 5672 5673 5673 5674 5675 5675 5676 5676 5676 5676
5652 5652 5651 5651 5653 5653 5651 5651 5652 5654 5656 5656 5657 5657 5658 5659 5658 5655 5653 5652 5652 5655 5657 5657 5657 5657 5659 5661 5663 5664 5665 5666 5666 5667 5667 5668 5668 5668
5642 5641 5641 5641 5643 5643 5642 5642 5642 5645 5646 5648 5648 5650 5651 5651 5651 5650 5649 5646 5646 5647 5651 5650 5650 5650 5649 5652 5654 5655 5656 5656 5657 5658 5659 5659 5659 5658
5628 5628 5629 5630 5631 5632 5633 5633 5635 5637 5637 5637 5638 5639 5641 5642 5643 5644 5644 5643 5642 5643 5646 5645 5644 5644 5644 5644 5644 5646 5647 5648 5648 5649 5649 5650 5650 5650
5616 5616 5616 5618 5619 5620 5622 5624 5626 5626 5626 5627 5627 5628 5630 5632 5634 5635 5636 5637 5639 5641 5642 5641 5640 5639 5637 5636 5636 5637 5638 5639 5640 5640 5640 5640 5640 5640
5604 5604 5605 5606 5606 5607 5610 5612 5613 5613 5613 5614 5616 5618 5621 5623 5624 5625 5626 5627 5629 5631 5632 5634 5634 5633 5632 5631 5630 5630 5629 5630 5631 5631 5631 5631 5631 5631
5593 5592 5592 5591 5591 5593 5596 5597 5598 5599 5600 5601 5604 5607 5609 5610 5611 5613 5614 5615 5616 5619 5622 5624 5625 5625 5624 5624 5624 5623 5624 5623 5623 5623 5623 5623 5623 5623
5581 5579 5577 5576 5576 5577 5579 5581 5582 5583 5585 5586 5589 5591 5594 5597 5600 5602 5603 5604 5605 5608 5610 5612 5614 5616 5617 5617 5615 5616 5615 5615 5616 5616 5614 5613 5614 5615
5568 5564 5561 5559 5559 5560 5561 5564 5566 5567 5569 5571 5574 5577 5580 5584 5587 5589 5591 5593 5596 5599 5601 5602 5602 5602 5602 5604 5608 5609 5608 5607 5607 5607 5607 5605 5605 5606
5551 5548 5545 5544 5543 5544 5545 5546 5549 5551 5553 5555 5557 5561 5565 5569 5573 5577 5580 5582 5586 5589 5592 5593 5593 5594 5594 5596 5598 5601 5601 5600 5599 5598 5598 5598 5599 5600
5535 5532 5530 5529 5528 5528 5529 5530 5532 5533 5535 5538 5541 5544 5549 5554 5559 5564 5569 5572 5575 5578 5580 5582 5585 5589 5591 5593 5591 5591 5594 5594 5592 5591 5589 5588 5588 5590
5522 5519 5516 5515 5514 5513 5514 5515 5516 5518 5520 5522 5526 5529 5533 5538 5544 5550 5556 5561 5564 5567 5571 5576 5580 5581 5581 5580 5579 5580 5583 5586 5588 5587 5583 5579 5577 5577
5509 5506 5504 5502 5500 5499 5499 5499 5501 5503 5505 5507 5511 5515 5519 5524 5530 5536 5542 5548 5553 5558 5563 5566 5567 5568 5569 5572 5574 5574 5573 5573 5576 5578 5579 5580 5576 5574
5496 5493 5491 5489 5486 5485 5484 5484 5486 5490 5492 5494 5498 5502 5506 5511 5518 5523 5529 5536 5542 5547 5551 5553 5555 5558 5561 5565 5565 5565 5565 5564 5564 5564 5566 5569 5572 5574